Location: Shepherdstown, WV
(39.4326°N, 77.8042°W)
Time: 01:47:55
(UTC-04:00)

A-11 Canister half - Visible Passes

Search period start: 31 July 2021 00:00
Search period end: 10 August 2021 00:00
Orbit: 1513 x 1687 km, 47.2° (Epoch: 30 July)

Date Brightness Start Highest point End Pass type
(mag) Time Alt. Az. Time Alt. Az. Time Alt. Az.
31 Jul 9.7 01:48:58 10° WNW 01:56:08 37° WSW 01:56:08 37° WSW visible
31 Jul 9.7 21:14:40 10° WNW 21:24:29 56° N 21:34:29 10° E visible
31 Jul 9.1 23:20:25 10° WNW 23:30:38 80° NNE 23:35:34 36° ESE visible
01 Aug 9.6 01:25:56 10° WNW 01:33:42 41° WSW 01:33:42 41° WSW visible
01 Aug 9.8 20:51:40 10° WNW 21:01:27 55° N 21:11:26 10° ENE visible
01 Aug 9.2 22:57:26 10° WNW 23:07:38 78° NNE 23:13:13 32° ESE visible
02 Aug 9.5 01:02:54 10° WNW 01:11:22 44° WSW 01:11:22 44° WSW visible
02 Aug 9.2 22:34:29 10° WNW 22:44:38 75° NNE 22:50:57 27° ESE visible
03 Aug 9.4 00:39:54 10° WNW 00:49:06 48° SW 00:49:06 48° SW visible
03 Aug 9.3 22:11:32 10° WNW 22:21:38 73° NNE 22:28:45 23° ESE visible
04 Aug 9.3 00:16:54 10° WNW 00:26:33 51° SW 00:26:55 51° SW visible
04 Aug 9.3 21:48:34 10° WNW 21:58:38 71° NNE 22:06:37 19° ESE visible
04 Aug 9.2 23:53:53 10° WNW 00:03:39 54° SW 00:04:47 52° SSW visible
05 Aug 10.9 02:02:31 10° W 02:02:56 11° W 02:02:56 11° W visible
05 Aug 9.4 21:25:36 10° WNW 21:35:38 69° NNE 21:44:32 15° ESE visible
05 Aug 9.2 23:30:54 10° WNW 23:40:44 58° SW 23:42:42 51° S visible
06 Aug 10.8 01:38:58 10° W 01:40:52 13° W 01:40:52 13° W visible
06 Aug 9.4 21:02:37 10° WNW 21:12:37 67° NNE 21:22:31 11° ESE visible
06 Aug 9.2 23:07:55 10° WNW 23:17:49 61° SW 23:20:40 47° S visible
07 Aug 10.7 01:15:33 10° W 01:18:51 15° WSW 01:18:51 15° WSW visible
07 Aug 9.5 20:39:40 10° WNW 20:49:36 65° NNE 20:59:45 10° E visible
07 Aug 9.2 22:44:57 10° WNW 22:54:53 64° SW 22:58:42 41° SSE visible
08 Aug 10.6 00:52:12 10° W 00:56:53 18° WSW 00:56:53 18° WSW visible
08 Aug 9.2 22:21:59 10° WNW 22:31:57 67° SW 22:36:47 35° SSE visible
09 Aug 10.5 00:28:55 10° W 00:34:58 20° WSW 00:34:58 20° WSW visible
09 Aug 9.2 21:59:01 10° WNW 22:09:01 71° SW 22:14:55 29° SE visible
